Location: Marcé
(47.5801°N, 0.3280°W)
Time: 22:39:29
(UTC+01:00)

Transit 2A - Pass Details

Date: 30 November 2021
Orbit: 591 x 967 km, 66.7° (Epoch: 23 January)

Event Time Altitude Azimuth Distance (km) Brightness Sun altitude
Rises 12:20:00 0° 313° (NW) 3,664 9.1 20.4°
Reaches altitude 10° 12:23:32 10° 295° (WNW) 2,705 8.6 20.4°
Maximum altitude 12:27:22 17° 258° (WSW) 2,210 8.6 20.5°
Drops below altitude 10° 12:31:07 10° 220° (SW) 2,624 9.6 20.6°
Sets 12:34:29 0° 201° (SSW) 3,507 10.6 20.6°
